Location: Gellin
(53.4498°N, 14.3207°E)
Time: 02:04:14
(UTC+00:00)

Cosmos 2219 Rocket - Pass Details

Date: 03 March 2021
Orbit: 827 x 848 km, 71.0° (Epoch: 11 April)

Event Time Altitude Azimuth Distance (km) Brightness Sun altitude
Rises 21:10:55 0° 249° (WSW) 3,368 5.5 -36.8°
Reaches altitude 10° 21:13:39 10° 260° (W) 2,440 4.8 -37.0°
Maximum altitude 21:18:32 30° 321° (NW) 1,455 3.8 -37.5°
Drops below altitude 10° 21:23:29 10° 22° (NNE) 2,461 4.9 -37.9°
Sets 21:26:15 0° 33° (NNE) 3,402 5.6 -38.1°
